Location: Montbazon
(47.2835°N, 0.6999°E)
Time: 16:59:48
(UTC+00:00)

Cosmos 44 Rocket - Pass Details

Date: 08 November 2025
Orbit: 637 x 741 km, 65.1° (Epoch: 09 December)

Event Time Altitude Azimuth Distance (km) Brightness Sun altitude
Exits shadow 05:43:46 16° 293° (WNW) 1,882 4.9 -11.7°
Maximum altitude 05:46:46 26° 247° (WSW) 1,420 4.5 -11.2°
Drops below altitude 10° 05:51:00 10° 191° (SSW) 2,244 6.0 -10.5°
Sets 05:53:42 0° 179° (S) 3,163 6.9 -10.0°
